Home > Weather > Dornbirn > Past weeks

Flag for Austria Past Weather in Dornbirn, Vorarlberg, Austria — Yesterday and Last 2 Weeks

Now
78 °F

Warm.


Feels Like: 80 °F
Forecast: 57 / 78 °F
Wind: 2 mph from Northwest

Location: Bregenz

Current Time: Jul 25, 2016 at 7:51:33 PM

Latest Report: Jul 25, 2016 at 7:00 PM


Visibility: N/A

Pressure: 30.03 "Hg

Humidity: 61%

Dew Point: 64 °F

Location of DornbirnLocation

Past Weather in Dornbirn — Graph

°F

Dornbirn Temperature Yesterday

Maximum temperature yesterday: 80 °F (at 7:00 PM)
Minimum temperature yesterday: 64 °F (at 5:00 AM)
Average temperature yesterday: 72 °F

High & Low Weather Summary for the Past Weeks

 TemperatureHumidityPressure
High88 °F (Jul 20, 7:00 PM)98% (Jul 13, 2:00 AM)30.36 "Hg (Jul 13, 2:00 AM)
Low49 °F (Jul 16, 5:00 AM)31% (Jul 20, 5:00 PM)29.83 "Hg (Jul 11, 4:00 PM)
Average67 °F73%30.07 "Hg
* Reported Jul 10 6:00 PM — Jul 25 6:00 PM, Dornbirn, Weather by CustomWeather, © 2016

Note: Actual official high and low records may vary slightly from our data, if they occured in-between our weather recording intervals... More about our weather records

Advertising

Dornbirn Weather History for the Previous 24 Hours

Scroll right to see more
 ConditionsComfort  
Time TempWeatherWind HumidityBarometerVisibility
6:00 PM
Mon, Jul 25
80 °FWarm.3 mph51%30.01 "HgN/A
5:00 PM81 °FWarm.2 mph48%30.01 "HgN/A
4:00 PM79 °FWarm.2 mph55%30.02 "HgN/A
3:00 PM78 °FWarm.3 mph59%30.03 "HgN/A
2:00 PM76 °FPartly sunny.2 mph62%30.04 "Hg9 mi
1:00 PM76 °FMild.2 mph62%30.05 "HgN/A
12:00 PM73 °FMild.1 mph72%30.07 "HgN/A
11:00 AM71 °FPartly sunny.1 mph75%30.08 "Hg11 mi
10:00 AM68 °FMild.2 mph82%30.10 "HgN/A
9:00 AM67 °FMild.2 mph86%30.10 "HgN/A
8:00 AM67 °FOvercast.3 mph88%30.10 "Hg4 mi
7:00 AM66 °FLight rain. Overcast.3 mph90%30.09 "Hg4 mi
6:00 AM67 °FMild.2 mph84%30.09 "HgN/A
5:00 AM68 °FMild.3 mph81%30.08 "HgN/A
4:00 AM67 °FMild.2 mph80%30.08 "HgN/A
3:00 AM67 °FMild.1 mph79%30.09 "HgN/A
2:00 AM68 °FMild.1 mph78%30.08 "HgN/A
1:00 AM69 °FMild.2 mph78%30.09 "HgN/A
12:00 AM69 °FMild.2 mph76%30.09 "HgN/A
11:00 PM
Sun, Jul 24
71 °FMild.6 mph70%30.07 "HgN/A
10:00 PM72 °FMild.6 mph65%30.06 "HgN/A
9:00 PM76 °FMild.5 mph57%30.03 "HgN/A
8:00 PM79 °FWarm.1 mph44%30.01 "HgN/A
7:00 PM80 °FWarm.2 mph44%29.99 "HgN/A
Weather by CustomWeather, © 2016

See weather overviewHow to use our weather pages